sat.trackr.live / text

‹ back to catalog

STARLINK-33945

NORAD 64154 · 2025-112J

PAYLOAD ACTIVE UNKNOWN

§ Identity

Operator
Country
US
Launch date
2025-05-27
Launch site
AFWTR
Launch vehicle
Mass (kg)
RCS (m²)

Purposes: comms

External: N2YO · Heavens-Above · Gunter

§ Orbital elements

Epoch: 2026-09-20T21:26:52.948896Z

Period
93.91 min
Inclination
97.2837°
Eccentricity
0.0000998
Mean motion
15.33458080 rev/d
Perigee alt
464.8 km
Apogee alt
466.2 km
Semi-major
6,843.6 km
B*
3.9386e-4
RAAN
318.6236°
Arg perigee
92.5791°
Mean anomaly
267.5566°
Rev number
7,330

§ Raw data

STARLINK-339451 64154U 25112J   26263.89366839  .00012667  00000+0  39386-3 0  99952 64154  97.2837 318.6236 0000998  92.5791 267.5566 15.33458080 73303

JSON: /api/v1/satellites/64154 · /tle

For live sub-satellite position, see the globe view (requires WebGL).

§ Visibility from observer

Set your observer location to see the next 7 days of passes ≥ 10°. The values pass through the URL so the page stays shareable.

No JS? Fill the form by hand. The geolocation button needs JavaScript.